Skip Page Navigation
NASA JPL Caltech
NASA Logo - Jet Propulsion Laboratory + View the NASA Portal
+ Center for Near-Earth Object Studies
JPL Home Earth Solar System Stars & Galaxies Technology
JPL Solar System Dynamics
BODIES ORBITS EPHEMERIDES TOOLS PHYSICAL DATA DISCOVERY FAQ SITE MAP
IMPORTANT: The SSD Announcement email list is now available. Major changes are coming in the near future, including possible hostname and/or URL changes. To be notified of such changes, subscribe to this email list.

Please visit this page for more details.


JPL Small-Body Database Browser
Search: [ help ]  
26508 Jimmylin (2000 CD29)
Classification: Main-belt Asteroid          SPK-ID: 2026508
Ephemeris | Orbit Diagram | Orbital Elements | Mission Design | Physical Parameters | Discovery Circumstances | Close-Approach Data ]

[ show orbit diagram ]
Orbital Elements at Epoch 2459000.5 (2020-May-31.0) TDB
Reference: JPL 18 (heliocentric ecliptic J2000)
 Element Value Uncertainty (1-sigma)   Units 
e .1750445337857987 3.0758e-08  
a 2.386817048228724 8.8776e-09 au
q 1.969017770789531 7.4642e-08 au
i 1.442541986591314 3.8059e-06 deg
node 254.6969664629839 0.00015569 deg
peri 13.46776090054655 0.00015639 deg
M 78.08160358291165 1.2718e-05 deg
tp 2458708.371891379930
(2019-Aug-12.87189138)
4.8058e-05 TDB
period 1346.874478462187
3.69
7.5144e-06
2.057e-08
d
yr
n .2672854863290863 1.4912e-09 deg/d
Q 2.804616325667917 1.0432e-08 au
  Orbit Determination Parameters
   # obs. used (total)      1043  
   data-arc span      9623 days (26.35 yr)  
   first obs. used      1993-03-26  
   last obs. used      2019-07-31  
   planetary ephem.      DE431  
   SB-pert. ephem.      SB431-N16  
   condition code      0  
   norm. resid. RMS      .52853  
   source      ORB  
   producer      Otto Matic  
   solution date      2020-Feb-23 00:46:18  

Additional Information
 Earth MOID = .953018 au 
 Jupiter MOID = 2.28464 au 
 T_jup = 3.513 
[ show covariance matrix ]

Ephemeris | Orbit Diagram | Orbital Elements | Mission Design | Physical Parameters | Discovery Circumstances | Close-Approach Data ]

Physical Parameter Table
Parameter Symbol Value Units Sigma Reference Notes
absolute magnitude H 15.5   n/a MPO431807  

26508 Jimmylin           Discovered 2000 Feb. 2 by the Lincoln Laboratory Near-Earth Asteroid Research Team at Socorro.
Jimmy Lin (b. 1994) was awarded second place in the 2010 Intel International Science and Engineering Fair for his environomental-management team project. He attends the Robert Louis Stevenson Upper School, Pebble Beach, California, U.S.A.
NOTE: some special characters may not display properly (any characters within {} are an attempt to place the proper accent above a character)
Reference: 20110319/MPCPages.arcLast Updated: 2011-03-23

[ show close-approach data ]
Ephemeris | Orbit Diagram | Orbital Elements | Mission Design | Physical Parameters | Discovery Circumstances | Close-Approach Data ]
ABOUT SSD CREDITS/AWARDS PRIVACY/COPYRIGHT GLOSSARY LINKS
FirstGov 2020-Apr-01 12:21 UT
(server date/time)  
NASA Home Page
Site Manager:   Ryan S. Park
Webmaster  Alan B. Chamberlin